Location: Ajisawe
(8.4333°N, 4.3833°E)
Time: 13:54:33
(UTC+00:00)

Courier 1B Rocket - Pass Details

Date: 29 April 2021
Orbit: 920 x 1202 km, 28.2° (Epoch: 07 May)

Event Time Altitude Azimuth Distance (km) Brightness Sun altitude
Rises 19:11:26 0° 315° (NW) 3,584 9.1 -19.6°
Reaches altitude 10° 19:14:54 10° 334° (NNW) 2,675 7.9 -20.4°
Maximum altitude 19:19:14 18° 16° (NNE) 2,181 6.8 -21.4°
Enters shadow 19:22:22 14° 49° (NE) 2,513 6.9 -22.1°
Drops below altitude 10° 19:23:43 10° 58° (ENE) 2,795 - -22.5°
Sets 19:27:27 0° 76° (ENE) 3,807 - -23.3°
